GW0861 Weather Reports


Display with metric or nautical units.
time (UTC)temp
F
wind
direction
speed
MPH
gust
MPH
rain 1hr
in
rain 24hr
in
rain mn
in
humidity
%
barometer
mb
20260902031757 68 226 1.0 4.0 0.00 0.02 0.02 96 1018.0
20260902031257 68 234 1.0 5.0 0.00 0.02 0.02 96 1017.9
20260902030758 68 59 2.0 5.0 0.00 0.02 0.02 96 1017.8
20260902030259 68 83 3.0 4.0 0.00 0.02 0.02 96 1017.8
20260902030236 68 243 2.0 4.0 0.00 0.02 0.02 96 1017.8
20260902025256 68 243 0.0 1.0 0.00 0.02 0.02 96 1017.8
20260902024757 68 243 0.0 1.0 0.00 0.02 0.02 96 1017.8
20260902024257 68 243 0.0 2.0 0.00 0.02 0.02 96 1017.9
20260902023758 68 243 0.0 2.0 0.00 0.02 0.02 96 1018.1
20260902023258 68 243 0.0 2.0 0.00 0.02 0.02 96 1018.1
20260902023038 68 243 1.0 3.0 0.00 0.02 0.02 96 1018.1
20260902022258 68 243 2.0 3.0 0.00 0.02 0.02 96 1018.1
20260902021758 68 243 1.0 3.0 0.00 0.02 0.02 96 1018.1
20260902021258 68 243 2.0 3.0 0.00 0.02 0.02 96 1018.1
20260902020757 68 243 1.0 3.0 0.00 0.02 0.02 96 1018.1
20260902020257 68 243 1.0 3.0 0.00 0.02 0.02 96 1018.0
20260902015758 68 243 0.0 5.0 0.00 0.02 0.02 96 1017.9
20260902015259 68 243 2.0 5.0 0.00 0.02 0.02 96 1017.9
20260902014757 68 209 2.0 4.0 0.00 0.02 0.02 95 1017.9
20260902014257 68 266 1.0 2.0 0.00 0.02 0.02 95 1017.8
20260902013757 68 266 0.0 2.0 0.00 0.02 0.02 95 1017.6
20260902013536 68 266 0.0 2.0 0.00 0.02 0.02 95 1017.5
20260902012802 68 266 0.0 0.0 0.00 0.02 0.02 95 1017.5
20260902012543 68 266 0.0 2.0 0.00 0.02 0.02 95 1017.5
20260902011757 68 266 0.0 2.0 0.00 0.02 0.02 95 1017.5
20260902011258 68 266 1.0 3.0 0.00 0.02 0.02 95 1017.5
20260902010758 68 266 2.0 3.0 0.00 0.02 0.02 95 1017.6
20260902010536 68 266 0.0 4.0 0.00 0.02 0.02 95 1017.6
20260902005758 68 268 1.0 4.0 0.00 0.02 0.02 94 1017.7
20260902005258 68 268 2.0 3.0 0.00 0.02 0.02 94 1017.6
20260902004803 68 266 1.0 3.0 0.00 0.02 0.02 94 1017.6
20260902004257 68 266 2.0 5.0 0.00 0.02 0.02 94 1017.5
20260902003757 68 266 3.0 5.0 0.00 0.02 0.02 94 1017.4
20260902003257 68 266 2.0 4.0 0.01 0.02 0.02 94 1017.4
20260902002757 69 243 1.0 4.0 0.01 0.02 0.02 94 1017.4
20260902002257 69 219 2.0 4.0 0.01 0.02 0.02 94 1017.3
20260902001757 69 173 3.0 4.0 0.01 0.02 0.02 94 1017.1
20260902001257 69 154 3.0 4.0 0.01 0.02 0.02 94 1017.0
20260902001241 69 296 0.0 4.0 0.01 0.02 0.02 94 1016.7
20260902000258 69 296 3.0 4.0 0.01 0.02 0.02 94 1016.7
20260901235757 69 268 2.0 3.0 0.01 0.01 0.02 94 1016.6
20260901235257 69 268 2.0 3.0 0.01 0.01 0.02 94 1016.6
20260901234757 69 269 2.0 3.0 0.01 0.01 0.02 94 1016.7
20260901234526 69 269 2.0 3.0 0.01 0.01 0.02 94 1016.6
20260901233757 69 268 0.0 4.0 0.01 0.01 0.02 94 1016.5
20260901233741 69 309 1.0 4.0 0.00 0.01 0.01 94 1016.5
20260901232536 70 313 2.0 4.0 0.00 0.01 0.01 93 1016.5
20260901231757 70 313 2.0 3.0 0.00 0.01 0.01 93 1016.4
20260901231257 70 313 1.0 3.0 0.00 0.01 0.01 93 1016.4
20260901230757 70 313 2.0 6.0 0.00 0.01 0.01 93 1016.5
20260901230258 70 300 5.0 7.0 0.00 0.01 0.01 93 1016.5
20260901225824 70 271 4.0 7.0 0.00 0.01 0.01 92 1016.6
20260901225815 70 293 2.0 7.0 0.00 0.01 0.01 93 1016.5
20260901224802 70 309 4.0 9.0 0.00 0.01 0.01 92 1016.6
20260901224512 70 296 4.0 9.0 0.00 0.01 0.01 91 1016.5
20260901224019 70 303 2.0 13.0 0.00 0.01 0.01 90 1016.5
20260901223258 70 341 4.0 15.0 0.00 0.01 0.01 89 1016.8
20260901222758 71 326 7.0 15.0 0.00 0.01 0.01 87 1017.5
20260901222257 71 329 2.0 7.0 0.00 0.01 0.01 86 1016.7
20260901222036 72 262 2.0 12.0 0.00 0.01 0.01 84 1017.1
20260901221257 74 279 8.0 12.0 0.00 0.01 0.01 83 1017.4
20260901221036 75 281 6.0 10.0 0.00 0.01 0.01 82 1017.3
20260901220257 75 258 2.0 13.0 0.00 0.01 0.01 79 1017.1
20260901215757 76 252 4.0 13.0 0.00 0.01 0.01 77 1016.8
20260901215535 0 0.0 0.0 0.00 0.00 0.00 1016.8
20260901214755 80 265 12.0 22.0 0.00 0.01 0.01 81 1016.7
20260901214532 80 290 1.0 5.0 0.00 0.01 0.01 79 1016.4
20260901213754 81 47 1.0 5.0 0.00 0.01 0.01 78 1015.9
20260901213255 81 295 0.0 4.0 0.00 0.01 0.01 78 1016.5
20260901212754 81 296 0.0 4.0 0.00 0.01 0.01 77 1015.9
20260901212254 82 312 0.0 3.0 0.00 0.01 0.01 76 1016.0
20260901211755 82 275 0.0 2.0 0.00 0.01 0.01 76 1015.8
20260901211254 82 275 0.0 2.0 0.00 0.01 0.01 75 1016.0
20260901210754 83 275 0.0 1.0 0.00 0.01 0.01 75 1015.8
20260901210255 83 75 0.0 3.0 0.00 0.01 0.01 75 1015.6
20260901205754 83 300 1.0 3.0 0.00 0.01 0.01 73 1015.8
20260901205531 84 309 0.0 2.0 0.00 0.01 0.01 73 1015.7
20260901204754 84 28 0.0 3.0 0.00 0.01 0.01 72 1015.7
20260901204255 85 100 0.0 3.0 0.00 0.01 0.01 72 1015.8
20260901204030 85 288 0.0 6.0 0.00 0.01 0.01 71 1015.9
20260901203254 85 344 0.0 6.0 0.00 0.01 0.01 71 1015.8
20260901202755 85 302 1.0 7.0 0.00 0.01 0.01 71 1015.8
20260901202254 85 17 2.0 7.0 0.00 0.01 0.01 69 1015.9
20260901202022 85 317 2.0 6.0 0.00 0.01 0.01 71 1015.9
20260901200754 86 314 0.0 2.0 0.00 0.01 0.01 71 1016.1
20260901200303 86 327 1.0 7.0 0.00 0.02 0.01 70 1016.1
20260901200254 86 317 0.0 4.0 0.00 0.02 0.01 70 1016.0
20260901195255 85 286 2.0 7.0 0.00 0.02 0.01 72 1016.0
20260901194754 85 48 1.0 10.0 0.00 0.02 0.01 72 1016.1
20260901194530 85 295 3.0 10.0 0.00 0.02 0.01 74 1016.2
20260901193755 85 316 0.0 6.0 0.00 0.02 0.01 72 1016.2
20260901193254 85 298 1.0 7.0 0.00 0.02 0.01 73 1016.4
20260901193018 84 244 3.0 7.0 0.00 0.02 0.01 74 1016.2
20260901192255 84 3 1.0 9.0 0.00 0.02 0.01 77 1016.2
20260901191754 84 319 4.0 10.0 0.00 0.02 0.01 74 1016.1
20260901191256 83 303 6.0 11.0 0.00 0.02 0.01 76 1016.1
20260901190753 83 288 5.0 11.0 0.00 0.02 0.01 76 1016.2
20260901190254 83 265 5.0 10.0 0.00 0.02 0.01 78 1016.2
20260901185815 83 313 0.0 7.0 0.00 0.02 0.01 76 1016.2
20260901185806 83 258 1.0 5.0 0.00 0.02 0.01 76 1016.2
20260901184754 83 292 4.0 7.0 0.00 0.02 0.01 75 1016.2
20260901184254 83 300 1.0 9.0 0.00 0.02 0.01 75 1016.2
20260901183755 83 292 3.0 12.0 0.00 0.02 0.01 75 1016.4
20260901183254 83 299 8.0 12.0 0.00 0.02 0.01 75 1016.2
20260901183023 83 298 4.0 6.0 0.00 0.02 0.01 77 1016.2
20260901182254 83 278 2.0 6.0 0.00 0.02 0.01 77 1016.2
20260901181754 82 279 3.0 9.0 0.00 0.02 0.01 79 1016.4
20260901181256 82 279 4.0 9.0 0.00 0.02 0.01 77 1016.4
20260901180754 82 276 3.0 9.0 0.00 0.02 0.01 77 1016.4
20260901180254 82 281 6.0 9.0 0.00 0.02 0.01 77 1016.4
20260901175753 82 259 3.0 6.0 0.00 0.02 0.01 77 1016.2
20260901175255 82 288 2.0 9.0 0.00 0.02 0.01 76 1016.4
20260901174754 82 316 4.0 9.0 0.00 0.02 0.01 78 1016.2
20260901174254 82 296 4.0 10.0 0.00 0.02 0.01 79 1016.1
20260901173755 82 279 4.0 10.0 0.00 0.02 0.01 78 1016.1
20260901173255 82 281 5.0 10.0 0.00 0.02 0.01 77 1016.1
20260901173034 82 262 4.0 6.0 0.00 0.02 0.01 81 1016.0
20260901172255 81 293 1.0 6.0 0.00 0.02 0.01 82 1016.0
20260901172031 80 302 3.0 9.0 0.00 0.02 0.01 80 1016.1
20260901171532 80 282 4.0 10.0 0.00 0.02 0.01 82 1016.1
20260901170754 80 274 6.0 10.0 0.00 0.02 0.01 81 1016.1
20260901170254 80 286 4.0 12.0 0.00 0.02 0.01 80 1016.1
20260901165756 80 310 5.0 12.0 0.00 0.02 0.01 81 1016.0
20260901165532 80 281 5.0 12.0 0.00 0.02 0.01 82 1016.1
20260901165037 79 288 7.0 12.0 0.00 0.02 0.01 82 1016.0
20260901164532 79 283 3.0 12.0 0.00 0.02 0.01 83 1016.1
20260901163754 79 288 8.0 13.0 0.00 0.02 0.01 83 1016.1
20260901163254 78 302 7.0 13.0 0.00 0.02 0.01 83 1016.2
20260901162754 78 305 7.0 10.0 0.00 0.02 0.01 84 1016.1
20260901162254 78 307 6.0 13.0 0.00 0.02 0.01 84 1016.1
20260901161754 78 289 7.0 14.0 0.00 0.02 0.01 84 1016.1
20260901161254 78 257 7.0 16.0 0.00 0.02 0.01 83 1016.1
20260901160950 78 307 8.0 17.0 0.00 0.02 0.01 83 1016.1
20260901160034 78 300 8.0 17.0 0.00 0.02 0.01 82 1016.0
20260901155531 78 290 5.0 15.0 0.00 0.02 0.01 83 1016.0
20260901154754 78 298 9.0 15.0 0.00 0.02 0.01 82 1015.9
20260901154533 78 276 9.0 16.0 0.00 0.02 0.01 83 1015.9
20260901153754 78 281 8.0 16.0 0.00 0.02 0.01 84 1016.0
20260901153254 78 241 6.0 16.0 0.00 0.02 0.01 83 1015.8
20260901152755 78 312 9.0 16.0 0.00 0.02 0.01 84 1015.9
20260901152254 78 289 7.0 13.0 0.00 0.02 0.01 85 1015.9
20260901151754 78 276 6.0 11.0 0.00 0.02 0.01 87 1016.0
20260901151254 77 312 6.0 11.0 0.00 0.02 0.01 88 1016.0
20260901150754 76 240 6.0 12.0 0.00 0.02 0.01 89 1016.0
20260901150253 76 271 6.0 12.0 0.00 0.02 0.01 88 1016.0
20260901145754 75 316 7.0 11.0 0.00 0.02 0.01 88 1016.0
20260901145254 75 268 4.0 11.0 0.00 0.02 0.01 88 1016.1
20260901145032 75 295 5.0 11.0 0.00 0.02 0.01 88 1016.2
20260901144257 75 275 4.0 9.0 0.00 0.02 0.01 89 1016.1
20260901143754 75 266 4.0 11.0 0.00 0.02 0.01 88 1016.1
20260901143253 74 282 5.0 11.0 0.00 0.02 0.01 88 1016.2
20260901142754 74 259 6.0 12.0 0.00 0.02 0.01 89 1016.2
20260901142254 74 298 7.0 12.0 0.00 0.02 0.01 89 1016.4
20260901141754 74 289 7.0 12.0 0.00 0.02 0.01 89 1016.4
20260901141253 74 0 7.0 11.0 0.00 0.02 0.01 91 1016.4
20260901141034 73 302 4.0 10.0 0.00 0.02 0.01 92 1016.4
20260901140254 73 295 4.0 10.0 0.00 0.02 0.01 92 1016.2
20260901135753 73 272 4.0 9.0 0.00 0.02 0.01 92 1016.4
20260901135533 72 283 6.0 9.0 0.00 0.02 0.01 92 1016.4
20260901134756 72 252 4.0 9.0 0.00 0.02 0.01 92 1016.2
20260901134253 72 258 5.0 9.0 0.00 0.02 0.01 92 1016.4
20260901133754 71 289 3.0 7.0 0.00 0.02 0.01 92 1016.5
20260901133256 71 274 3.0 7.0 0.00 0.02 0.01 92 1016.4
20260901132754 71 262 4.0 10.0 0.00 0.02 0.01 92 1016.4
20260901132253 71 302 4.0 11.0 0.00 0.02 0.01 92 1016.4
20260901131753 71 298 6.0 11.0 0.00 0.02 0.01 93 1016.4
20260901131254 71 269 6.0 11.0 0.00 0.02 0.01 93 1016.5
20260901130754 71 292 5.0 11.0 0.00 0.02 0.01 93 1016.4
20260901130307 71 265 5.0 11.0 0.00 0.02 0.01 94 1016.5
20260901125254 71 292 6.0 10.0 0.00 0.02 0.01 94 1016.5
20260901124754 71 278 6.0 9.0 0.00 0.02 0.01 94 1016.4
20260901124303 70 282 5.0 10.0 0.00 0.02 0.01 94 1016.5
20260901123254 70 266 4.0 12.0 0.00 0.02 0.01 94 1016.5
20260901122753 70 262 6.0 12.0 0.00 0.02 0.01 94 1016.5
20260901122254 70 252 5.0 10.0 0.00 0.02 0.01 95 1016.5
20260901121753 70 247 5.0 9.0 0.00 0.02 0.01 95 1016.6
20260901121531 70 278 4.0 10.0 0.00 0.02 0.01 95 1016.5
20260901121031 70 289 6.0 10.0 0.00 0.02 0.01 95 1016.6
20260901120529 70 266 5.0 12.0 0.00 0.02 0.01 95 1016.6
20260901115753 70 281 6.0 12.0 0.00 0.02 0.01 95 1016.5
20260901115254 70 289 5.0 10.0 0.00 0.02 0.01 95 1016.4
20260901115031 70 293 5.0 11.0 0.00 0.02 0.01 95 1016.4
20260901114252 70 262 5.0 11.0 0.00 0.02 0.01 95 1016.4
20260901113753 70 283 5.0 11.0 0.00 0.02 0.01 95 1016.4
20260901113253 70 209 5.0 11.0 0.00 0.02 0.01 96 1016.4
20260901112753 70 264 6.0 10.0 0.00 0.02 0.01 96 1016.4
20260901112531 70 245 5.0 10.0 0.00 0.02 0.01 96 1016.4
20260901112031 70 268 4.0 10.0 0.00 0.02 0.01 96 1016.5
20260901111254 70 206 5.0 11.0 0.00 0.02 0.01 96 1016.4
20260901110753 70 226 4.0 11.0 0.00 0.02 0.01 96 1016.1
20260901110253 70 252 6.0 11.0 0.00 0.02 0.01 96 1016.1
20260901105754 70 290 5.0 10.0 0.00 0.02 0.01 96 1016.1
20260901105253 70 255 5.0 12.0 0.01 0.02 0.01 96 1016.2
20260901104753 70 0 5.0 12.0 0.01 0.02 0.01 96 1016.2
20260901104254 70 248 4.0 12.0 0.01 0.02 0.01 96 1016.2
20260901103753 70 251 6.0 12.0 0.01 0.02 0.01 96 1016.2
20260901103253 70 295 4.0 12.0 0.01 0.02 0.01 96 1016.0
20260901102753 70 250 3.0 9.0 0.01 0.02 0.01 96 1015.9
20260901102253 70 265 4.0 9.0 0.01 0.02 0.01 96 1016.0
20260901101754 70 268 4.0 11.0 0.01 0.02 0.01 96 1015.9
20260901101254 70 233 4.0 11.0 0.01 0.02 0.01 96 1016.0
20260901100754 70 220 4.0 7.0 0.01 0.02 0.01 96 1016.1
20260901100253 70 188 4.0 11.0 0.01 0.02 0.01 96 1016.1
20260901095753 69 241 3.0 11.0 0.01 0.01 0.01 96 1016.1
20260901095253 69 217 2.0 7.0 0.00 0.01 0.00 96 1016.1
20260901094754 69 231 3.0 9.0 0.00 0.01 0.00 96 1016.2
20260901094253 69 230 4.0 9.0 0.00 0.01 0.00 96 1016.4
20260901093753 69 247 3.0 6.0 0.00 0.01 0.00 96 1016.4
20260901093255 69 230 3.0 10.0 0.00 0.01 0.00 96 1016.4
20260901092753 69 281 4.0 10.0 0.00 0.01 0.00 96 1016.4
20260901092253 69 245 4.0 6.0 0.00 0.01 0.00 96 1016.4
20260901091753 69 272 2.0 6.0 0.00 0.01 0.00 96 1016.6
20260901091253 69 231 2.0 7.0 0.00 0.01 0.00 96 1016.6
20260901090753 69 274 3.0 7.0 0.00 0.01 0.00 96 1016.6
20260901090253 69 165 3.0 6.0 0.00 0.01 0.00 96 1016.5
20260901085813 69 203 4.0 7.0 0.00 0.01 0.00 96 1016.4
20260901085804 69 244 3.0 6.0 0.00 0.01 0.00 96 1016.6
20260901084754 69 199 4.0 7.0 0.00 0.01 0.00 96 1016.5
20260901084253 69 176 3.0 5.0 0.00 0.01 0.00 96 1016.5
20260901083753 69 166 3.0 5.0 0.00 0.01 0.00 96 1016.4
20260901083253 69 158 2.0 3.0 0.00 0.01 0.00 96 1016.6
20260901082753 69 183 2.0 3.0 0.00 0.01 0.00 96 1016.7
20260901082254 69 183 1.0 4.0 0.00 0.01 0.00 96 1016.8
20260901081753 69 183 2.0 6.0 0.00 0.01 0.00 96 1016.8
20260901081254 69 149 3.0 6.0 0.00 0.01 0.00 96 1016.9
20260901080753 69 226 2.0 4.0 0.00 0.01 0.00 96 1016.8
20260901080253 69 247 3.0 4.0 0.00 0.01 0.00 96 1016.9
20260901080030 69 269 1.0 4.0 0.00 0.01 0.00 96 1016.9
20260901075253 69 269 2.0 4.0 0.00 0.01 0.00 96 1017.1
20260901074753 69 269 2.0 4.0 0.00 0.01 0.00 96 1017.2
20260901074311 69 262 0.0 3.0 0.00 0.01 0.00 96 1017.0
20260901074304 69 240 2.0 3.0 0.00 0.01 0.00 96 1017.0
20260901073254 69 262 0.0 4.0 0.00 0.01 0.00 96 1017.0
20260901072753 69 262 1.0 4.0 0.00 0.01 0.00 96 1017.1
20260901072253 69 269 2.0 5.0 0.00 0.01 0.00 96 1017.2
20260901071753 69 300 2.0 5.0 0.00 0.01 0.00 96 1017.4
20260901071252 69 261 3.0 5.0 0.00 0.01 0.00 96 1017.4
20260901071029 69 285 3.0 5.0 0.00 0.01 0.00 96 1017.3
20260901070253 69 248 0.0 5.0 0.00 0.01 0.00 95 1017.3
20260901070032 69 302 3.0 5.0 0.00 0.01 0.00 96 1017.5
20260901065253 69 254 3.0 5.0 0.00 0.01 0.00 95 1017.5
20260901064753 69 268 3.0 5.0 0.00 0.01 0.00 95 1017.7
20260901064253 69 279 3.0 4.0 0.00 0.01 0.00 95 1017.6
20260901063754 69 296 2.0 4.0 0.00 0.01 0.00 95 1017.7
20260901063253 69 283 1.0 4.0 0.00 0.01 0.00 95 1017.7
20260901062753 69 283 2.0 4.0 0.00 0.01 0.00 95 1017.7
20260901062530 69 275 2.0 5.0 0.00 0.01 0.00 95 1017.7
20260901061753 69 271 3.0 5.0 0.00 0.01 0.00 95 1017.8
20260901061530 69 282 3.0 5.0 0.00 0.01 0.00 95 1017.8
20260901060810 69 302 3.0 5.0 0.00 0.01 0.00 95 1017.9
20260901060803 69 278 3.0 5.0 0.00 0.01 0.00 95 1017.8
20260901055753 69 255 2.0 4.0 0.00 0.01 0.00 95 1017.8
20260901055253 69 281 2.0 4.0 0.00 0.01 0.00 95 1017.8
20260901054753 69 282 2.0 4.0 0.00 0.01 0.00 95 1017.9
20260901054535 69 271 2.0 5.0 0.00 0.01 0.00 95 1018.0
20260901053753 69 268 2.0 5.0 0.00 0.01 0.00 95 1018.0
20260901053253 69 259 2.0 4.0 0.00 0.01 0.00 95 1017.9
20260901052753 69 235 1.0 3.0 0.00 0.01 0.00 95 1018.0
20260901052254 69 204 0.0 3.0 0.00 0.01 0.00 95 1018.1
20260901051753 69 279 0.0 3.0 0.00 0.01 0.00 95 1018.0
20260901051253 69 279 1.0 3.0 0.00 0.01 0.00 95 1018.2
20260901050753 69 279 0.0 3.0 0.00 0.01 0.00 95 1018.2
20260901050253 69 279 1.0 3.0 0.00 0.01 0.00 95 1018.0
20260901045755 69 279 0.0 4.0 0.00 0.01 0.00 95 1018.1
20260901045255 69 279 2.0 4.0 0.00 0.01 0.00 95 1018.2
20260901044753 69 279 1.0 4.0 0.00 0.01 0.00 95 1018.2
20260901044252 69 279 2.0 4.0 0.00 0.01 0.00 95 1018.2
20260901043753 69 279 2.0 3.0 0.00 0.01 0.00 95 1018.2
20260901043253 69 279 0.0 0.0 0.00 0.01 0.00 95 1018.1
20260901042752 69 279 0.0 3.0 0.00 0.01 0.00 95 1018.1
20260901042550 69 279 0.0 2.0 0.00 0.01 0.00 94 1018.1
20260901042544 69 279 0.0 3.0 0.00 0.01 0.00 95 1018.1
20260901041530 69 279 0.0 3.0 0.00 0.01 0.00 95 1018.0
20260901041032 69 279 1.0 3.0 0.00 0.01 0.00 94 1018.2
20260901040532 69 279 1.0 3.0 0.00 0.01 0.00 94 1018.0
20260901035752 69 279 2.0 3.0 0.00 0.01 0.01 94 1018.0
20260901035252 69 279 0.0 2.0 0.00 0.01 0.01 94 1018.1
20260901034754 69 279 0.0 4.0 0.00 0.01 0.01 94 1018.1
20260901034252 69 279 1.0 4.0 0.00 0.01 0.01 94 1018.2
20260901033752 69 279 2.0 4.0 0.00 0.01 0.01 94 1018.4
20260901033252 69 279 1.0 4.0 0.00 0.01 0.01 94 1018.4
20260901032753 69 279 3.0 4.0 0.00 0.01 0.01 94 1018.6
20260901032529 69 279 1.0 4.0 0.00 0.01 0.01 94 1018.5